Terug naar catalogus

THORAD AGENA D DEB

ActiefPO
NORAD 5024·DEBRIS·🇺🇸 United States

Gelanceerd Apr 8, 1970 vanaf Vandenberg Space Force Base

Loading…

Volgende Passages

TLE

Source: Space-Track
1  5024U 70025HY  26224.16126662  .00000791  00000-0  34450-3 0  9997
2  5024  99.8244 197.2688 0083086 332.2205  27.4545 14.25594310879984

Volg THORAD AGENA D DEB in realtime met AllMySat

Download on the App Store